Carbondale, IL

6:00 AM CDT on October 20, 2017 (GMT -0500)
Southern Illinois

Weather History for KMDH - November, 2013

Change the Weather History Date:

Friday, November 8, 2013

  Actual Average Record
Temperature  
Mean Temperature 42 °F -  
Max Temperature 57 °F 57 °F 81 °F (1915)
Min Temperature 28 °F 35 °F 11 °F (1991)
Degree Days  
Heating Degree Days 22    
Moisture  
Dew Point 30 °F    
Average Humidity 77    
Maximum Humidity 100    
Minimum Humidity 33    
Precipitation  
Precipitation 0.00 in - - ()
Sea Level Pressure  
Sea Level Pressure 30.32 in    
Wind  
Wind Speed 2 mph (SSE)    
Max Wind Speed 15 mph    
Max Gust Speed 20 mph    
Visibility 7 miles    
Events Fog    
Averages and records for this station are not official NWS values.
T = Trace of Precipitation, MM = Missing Value Source: NWS Daily Summary

Daily Weather History Graph

Daily Weather History Graph

Search for Another Location

Airport or City:

Trip Planner

Search our weather history database for the weather conditions in past years. The results will help you decide how hot, cold, wet, or windy it might be!

Date:

Astronomy

Nov. 08, 2013 Rise Set
Actual Time 6:29 AM CST 4:51 PM CST
Civil Twilight 6:02 AM CST 5:18 PM CST
Nautical Twilight 5:31 AM CST 5:49 PM CST
Astronomical Twilight 5:00 AM CST 6:20 PM CST
Moon 11:25 AM CST (11/8) 10:11 PM CST (11/8)
Length of Visible Light 11h 16m
Length of Day
10h 21m
Waxing Crescent, 33% of the Moon is Illuminated
Nov 8
Waxing Crescent
Nov 9
First Quarter
Nov 17
Full
Nov 25
Last Quarter
Dec 2
New

Hourly Weather History & Observations

Time (CST) Temp. Windchill Dew Point Humidity Pressure Visibility Wind Dir Wind Speed Gust Speed Precip Events Conditions
12:52 AM 33.1 °F - 32.0 °F 96% 30.35 in 5.0 mi Calm Calm - N/A   Clear
1:17 AM 32.0 °F - 30.2 °F 93% 30.34 in 1.8 mi Calm Calm - N/A   Clear
1:29 AM 33.8 °F - 30.2 °F 87% 30.35 in 3.0 mi Calm Calm - N/A   Clear
1:36 AM 32.0 °F - 30.2 °F 93% 30.35 in 2.5 mi Calm Calm - N/A   Clear
1:41 AM 30.2 °F - 30.2 °F 100% 30.35 in 0.8 mi Calm Calm - N/A   Clear
1:52 AM 32.0 °F - 30.0 °F 92% 30.36 in 0.5 mi Calm Calm - N/A Fog Fog
2:03 AM 30.2 °F 26.7 °F 30.2 °F 100% 30.35 in 2.0 mi NNW 3.5 mph - N/A   Clear
2:12 AM 30.2 °F - 28.4 °F 93% 30.35 in 5.0 mi Calm Calm - N/A   Clear
2:52 AM 32.0 °F - 30.9 °F 96% 30.36 in 5.0 mi Calm Calm - N/A   Clear
3:31 AM 30.2 °F - 30.2 °F 100% 30.36 in 2.5 mi Calm Calm - N/A   Clear
3:40 AM 30.2 °F - 28.4 °F 93% 30.36 in 9.0 mi Calm Calm - N/A   Clear
3:52 AM 28.9 °F - 28.0 °F 96% 30.37 in 10.0 mi Calm Calm - N/A   Clear
4:45 AM 30.2 °F - 28.4 °F 93% 30.37 in 1.8 mi Calm Calm - N/A   Clear
4:52 AM 30.0 °F - 28.0 °F 92% 30.38 in 1.2 mi Calm Calm - N/A   Clear
4:56 AM 30.2 °F - 28.4 °F 93% 30.36 in 1.0 mi Calm Calm - N/A   Mist
5:05 AM 28.4 °F - 26.6 °F 93% 30.36 in 2.0 mi Calm Calm - N/A   Partly Cloudy
5:12 AM 28.4 °F - 26.6 °F 93% 30.37 in 9.0 mi Calm Calm - N/A   Partly Cloudy
5:52 AM 28.0 °F - 26.1 °F 92% 30.40 in 8.0 mi Calm Calm - N/A   Clear
6:43 AM 28.4 °F - 26.6 °F 93% 30.38 in 1.8 mi Calm Calm - N/A   Clear
6:52 AM 28.9 °F - 28.0 °F 96% 30.40 in 1.0 mi Calm Calm - N/A   Clear
7:08 AM 28.4 °F - 26.6 °F 93% 30.39 in 7.0 mi Calm Calm - N/A   Clear
7:52 AM 33.1 °F - 32.0 °F 96% 30.42 in 10.0 mi Calm Calm - N/A   Clear
8:52 AM 42.1 °F - 37.0 °F 82% 30.41 in 10.0 mi Calm Calm - N/A   Clear
9:52 AM 48.0 °F - 36.0 °F 63% 30.40 in 10.0 mi Variable 4.6 mph - N/A   Clear
10:52 AM 53.1 °F - 33.1 °F 47% 30.38 in 10.0 mi Variable 6.9 mph - N/A   Clear
11:52 AM 55.0 °F - 28.0 °F 35% 30.35 in 10.0 mi SSE 8.1 mph - N/A   Clear
12:52 PM 55.9 °F - 27.0 °F 33% 30.30 in 10.0 mi South 9.2 mph - N/A   Clear
1:52 PM 57.0 °F - 30.9 °F 37% 30.29 in 10.0 mi South 15.0 mph 19.6 mph N/A   Clear
2:52 PM 57.0 °F - 30.0 °F 36% 30.26 in 10.0 mi South 10.4 mph - N/A   Clear
3:52 PM 55.9 °F - 30.9 °F 39% 30.23 in 10.0 mi SSE 10.4 mph - N/A   Clear
4:52 PM 52.0 °F - 30.0 °F 43% 30.22 in 10.0 mi South 8.1 mph - N/A   Clear
5:52 PM 46.9 °F - 28.9 °F 50% 30.22 in 10.0 mi South 5.8 mph - N/A   Clear
6:52 PM 46.9 °F - 30.0 °F 52% 30.21 in 10.0 mi SE 5.8 mph - N/A   Clear
7:52 PM 44.1 °F 41.5 °F 30.9 °F 60% 30.21 in 10.0 mi ESE 4.6 mph - N/A   Clear
8:52 PM 39.9 °F 36.7 °F 30.9 °F 70% 30.20 in 10.0 mi SSE 4.6 mph - N/A   Clear
9:52 PM 41.0 °F 36.4 °F 32.0 °F 70% 30.20 in 10.0 mi South 6.9 mph - N/A   Clear
10:52 PM 42.1 °F 37.7 °F 32.0 °F 67% 30.19 in 10.0 mi South 6.9 mph - N/A   Clear
11:52 PM 44.1 °F 38.6 °F 33.1 °F 65% 30.16 in 10.0 mi South 10.4 mph - N/A   Clear